EB5ETD Weather Reports


time (UTC)temp
C
wind
direction
speed
KPH
gust
KPH
rain 1hr
cm
rain 24hr
cm
rain mn
cm
humidity
%
barometer
mb
20260504050504 13 157 0.0 1.6 0.00 0.18 0.00 99 1020.4
20260504045504 13 156 1.6 3.2 0.00 0.18 0.00 99 1020.7
20260504045004 13 51 0.0 0.0 0.00 0.18 0.00 99 1020.5
20260504044504 13 51 0.0 0.0 0.00 0.18 0.00 98 1020.5
20260504044004 13 51 0.0 1.6 0.00 0.18 0.00 98 1020.5
20260504043504 13 51 0.0 1.6 0.00 0.18 0.00 98 1020.4
20260504042504 13 51 1.6 3.2 0.00 0.18 0.00 98 1020.4
20260504042004 13 51 1.6 3.2 0.00 0.18 0.00 98 1020.6
20260504041504 13 51 1.6 3.2 0.00 0.18 0.00 98 1020.7
20260504041004 13 51 1.6 1.6 0.00 0.18 0.00 98 1020.6
20260504040503 13 51 1.6 1.6 0.00 0.18 0.00 98 1020.7
20260504040004 13 40 1.6 3.2 0.00 0.18 0.00 98 1020.5
20260504035504 13 40 0.0 1.6 0.00 0.18 0.00 98 1020.6
20260504035003 13 40 0.0 1.6 0.00 0.18 0.00 98 1020.6
20260504034504 13 40 0.0 1.6 0.00 0.18 0.00 98 1020.8
20260504034004 13 40 0.0 1.6 0.00 0.18 0.00 98 1020.8
20260504033504 13 40 1.6 3.2 0.00 0.18 0.00 98 1020.9
20260504033004 13 40 0.0 1.6 0.00 0.18 0.00 98 1020.8
20260504032504 13 40 0.0 1.6 0.00 0.18 0.00 98 1021.0
20260504032004 13 40 0.0 0.0 0.00 0.18 0.00 98 1021.0
20260504031504 13 40 0.0 0.0 0.00 0.18 0.00 98 1021.2
20260504030003 13 40 1.6 4.8 0.00 0.18 0.00 98 1021.3
20260504025504 13 45 3.2 4.8 0.00 0.18 0.00 98 1021.5
20260504025004 13 43 0.0 1.6 0.00 0.18 0.00 98 1021.3
20260504024503 14 44 1.6 4.8 0.00 0.18 0.00 98 1021.3
20260504024004 14 61 1.6 3.2 0.00 0.18 0.00 98 1021.2
20260504023504 14 61 0.0 0.0 0.00 0.18 0.00 98 1021.1
20260504023004 14 61 0.0 1.6 0.00 0.18 0.00 98 1021.1
20260504022503 14 61 0.0 0.0 0.00 0.18 0.00 98 1021.4
20260504022004 14 61 0.0 0.0 0.00 0.18 0.00 98 1021.1
20260504021504 14 61 0.0 1.6 0.00 0.18 0.00 98 1021.1
20260504021004 14 61 0.0 0.0 0.00 0.18 0.00 98 1021.0
20260504020504 14 61 0.0 0.0 0.00 0.18 0.00 98 1021.1
20260504020004 14 61 0.0 1.6 0.00 0.18 0.00 98 1021.1
20260504015504 14 61 1.6 1.6 0.00 0.18 0.00 98 1021.4
20260504015003 14 61 1.6 1.6 0.00 0.18 0.00 98 1021.2
20260504014504 14 61 1.6 1.6 0.00 0.18 0.00 98 1021.1
20260504013504 14 61 0.0 1.6 0.00 0.18 0.00 98 1021.3
20260504013004 14 61 0.0 0.0 0.00 0.18 0.00 98 1021.3
20260504012504 13 61 0.0 1.6 0.00 0.18 0.00 98 1021.3
20260504012004 14 61 1.6 1.6 0.00 0.18 0.00 98 1021.3
20260504011504 14 61 0.0 0.0 0.00 0.18 0.00 98 1021.3
20260504011004 14 61 0.0 0.0 0.00 0.18 0.00 98 1021.2
20260504010504 13 61 0.0 0.0 0.00 0.18 0.00 98 1021.3
20260504010003 13 61 0.0 0.0 0.00 0.18 0.00 98 1021.3
20260504005503 13 61 0.0 0.0 0.00 0.18 0.00 98 1021.2
20260504005004 13 61 0.0 0.0 0.00 0.18 0.00 98 1021.3
20260504004504 13 61 0.0 0.0 0.00 0.18 0.00 98 1021.3
20260504004004 13 61 0.0 0.0 0.00 0.18 0.00 98 1021.3
20260504003503 13 61 0.0 0.0 0.00 0.18 0.00 98 1021.3
20260504003003 13 61 0.0 0.0 0.00 0.18 0.00 98 1021.1
20260504002503 13 61 0.0 1.6 0.00 0.18 0.00 98 1021.4
20260504002004 13 61 0.0 1.6 0.00 0.18 0.00 98 1021.5
20260504001504 13 61 1.6 3.2 0.00 0.18 0.00 98 1021.5
20260504001004 13 61 1.6 3.2 0.00 0.18 0.00 98 1021.6
20260504000504 13 61 1.6 1.6 0.00 0.18 0.00 98 1021.6
20260504000004 13 61 0.0 0.0 0.00 0.18 0.00 98 1021.7
20260503235004 13 61 0.0 3.2 0.00 0.18 0.00 98 1021.6
20260503234504 13 61 1.6 3.2 0.00 0.18 0.00 98 1021.7
20260503234004 14 61 1.6 3.2 0.00 0.18 0.00 98 1021.8
20260503233504 14 61 0.0 1.6 0.00 0.18 0.00 98 1021.7
20260503233004 14 61 0.0 1.6 0.00 0.18 0.00 98 1021.9
20260503232504 14 61 1.6 3.2 0.00 0.18 0.00 98 1021.9
20260503232004 14 61 0.0 1.6 0.00 0.18 0.00 98 1021.9
20260503231503 14 65 0.0 3.2 0.00 0.18 0.00 98 1022.0
20260503231005 14 65 1.6 3.2 0.00 0.18 0.00 98 1021.9
20260503230004 14 65 1.6 3.2 0.00 0.18 0.00 98 1021.9
20260503225503 14 65 1.6 3.2 0.00 0.18 0.00 98 1021.8
20260503225004 14 65 1.6 3.2 0.00 0.18 0.00 98 1022.1
20260503224004 13 65 1.6 3.2 0.00 0.18 0.00 98 1022.2
20260503222504 13 61 1.6 3.2 0.00 0.18 0.00 98 1022.2
20260503222003 13 61 0.0 1.6 0.00 0.18 0.00 98 1022.2
20260503221503 13 61 0.0 1.6 0.00 0.18 0.00 98 1022.4
20260503221004 13 56 1.6 3.2 0.00 0.18 0.00 98 1022.3
20260503220004 13 51 3.2 3.2 0.00 0.18 0.00 97 1022.3
20260503215504 13 46 3.2 3.2 0.00 0.18 0.18 97 1022.2
20260503215004 13 43 1.6 4.8 0.00 0.18 0.18 97 1022.3
20260503214504 13 56 3.2 4.8 0.00 0.18 0.18 97 1022.3
20260503214004 13 43 3.2 4.8 0.00 0.18 0.18 97 1022.1
20260503213504 13 42 1.6 4.8 0.00 0.18 0.18 97 1022.3
20260503212503 13 63 0.0 1.6 0.00 0.18 0.18 97 1022.5
20260503212003 13 65 1.6 8.0 0.00 0.18 0.18 97 1022.5
20260503211004 14 39 1.6 3.2 0.00 0.18 0.18 97 1022.6
20260503210004 14 41 0.0 3.2 0.00 0.18 0.18 97 1022.4
20260503205004 14 41 3.2 4.8 0.00 0.18 0.18 97 1022.2
20260503204503 14 56 0.0 1.6 0.00 0.18 0.18 97 1022.3
20260503203504 13 54 1.6 3.2 0.00 0.18 0.18 97 1022.1
20260503203003 13 55 0.0 1.6 0.00 0.18 0.18 97 1022.0
20260503202504 13 60 1.6 3.2 0.00 0.18 0.18 97 1021.9
20260503202004 13 54 0.0 1.6 0.00 0.18 0.18 97 1021.9
20260503201504 13 54 0.0 1.6 0.00 0.18 0.18 97 1022.0
20260503201004 13 54 0.0 1.6 0.00 0.18 0.18 97 1021.8
20260503200503 13 54 0.0 1.6 0.00 0.18 0.18 97 1021.7
20260503200003 13 53 1.6 1.6 0.00 0.18 0.18 97 1021.4
20260503195504 13 48 1.6 3.2 0.00 0.18 0.18 96 1021.6
20260503195005 13 44 0.0 3.2 0.00 0.18 0.18 96 1021.4
20260503194504 13 34 1.6 4.8 0.00 0.18 0.18 96 1021.2
20260503194004 13 47 1.6 3.2 0.00 0.18 0.18 96 1021.3
20260503193503 14 30 1.6 3.2 0.00 0.18 0.18 96 1021.2
20260503192503 14 54 1.6 4.8 0.00 0.18 0.18 96 1021.2
20260503192004 14 9 1.6 4.8 0.00 0.18 0.18 96 1021.1
20260503191504 14 29 3.2 8.0 0.03 0.18 0.18 96 1020.9
20260503191003 14 43 3.2 4.8 0.05 0.18 0.18 96 1020.9
20260503190004 14 5 1.6 4.8 0.15 0.18 0.18 95 1021.0
20260503185004 14 65 1.6 1.6 0.18 0.18 0.18 95 1020.6
20260503184504 14 72 1.6 3.2 0.18 0.18 0.18 95 1020.5
20260503184004 14 43 1.6 3.2 0.18 0.18 0.18 94 1020.5
20260503183504 14 49 1.6 4.8 0.18 0.18 0.18 94 1020.4
20260503183004 15 45 3.2 8.0 0.18 0.18 0.18 94 1020.4
20260503182503 15 53 1.6 8.0 0.18 0.18 0.18 93 1020.3
20260503181504 15 50 3.2 4.8 0.15 0.15 0.15 92 1020.4
20260503181004 15 43 3.2 4.8 0.13 0.13 0.13 91 1020.6
20260503180504 15 42 1.6 4.8 0.05 0.05 0.05 91 1020.7
20260503180004 15 55 1.6 3.2 0.03 0.03 0.03 90 1020.4
20260503175504 15 51 1.6 4.8 0.00 0.00 0.00 90 1020.5
20260503175003 15 37 3.2 4.8 0.00 0.00 0.00 89 1020.5
20260503173504 16 71 1.6 8.0 0.00 0.00 0.00 87 1020.0
20260503173003 16 38 4.8 11.3 0.00 0.00 0.00 86 1019.9
20260503172504 16 38 1.6 4.8 0.00 0.00 0.00 85 1020.0
20260503171503 16 32 3.2 8.0 0.00 0.00 0.00 84 1019.8
20260503171005 16 61 3.2 4.8 0.00 0.00 0.00 84 1019.7
20260503170504 16 49 3.2 8.0 0.00 0.00 0.00 83 1019.5
20260503150503 17 26 4.8 14.5 0.00 0.00 0.00 83 1019.9
20260503131004 19 55 1.6 8.0 0.00 0.00 0.00 69 1020.1
20260503130503 19 248 1.6 8.0 0.00 0.00 0.00 70 1020.3
20260503110504 18 240 0.0 3.2 0.00 0.00 0.00 73 1021.3
20260503090503 13 333 0.0 3.2 0.00 0.00 0.00 94 1024.0
20260503081504 14 44 1.6 4.8 0.00 0.00 0.00 90 1023.8
20260503081003 14 42 1.6 4.8 0.00 0.00 0.00 89 1023.8
20260503080504 15 60 1.6 4.8 0.00 0.00 0.00 89 1023.7
20260503072504 14 14 0.0 1.6 0.00 0.00 0.00 89 1023.4
20260503072004 14 36 0.0 1.6 0.00 0.00 0.00 89 1023.4
20260503071503 14 36 1.6 3.2 0.00 0.00 0.00 89 1023.4
20260503071004 14 41 1.6 3.2 0.00 0.00 0.00 89 1023.2
20260503070503 14 49 1.6 4.8 0.00 0.00 0.00 89 1023.4
20260503055004 13 41 1.6 1.6 0.00 0.00 0.00 89 1023.4
20260503054503 13 41 1.6 3.2 0.00 0.00 0.00 89 1023.1
20260503054004 13 41 0.0 1.6 0.00 0.00 0.00 90 1023.2
20260503053504 13 41 0.0 0.0 0.00 0.00 0.00 90 1023.2
20260503053005 13 41 0.0 0.0 0.00 0.00 0.00 90 1023.2
20260503052003 13 41 0.0 0.0 0.00 0.00 0.00 90 1023.1
20260503051504 13 41 0.0 1.6 0.00 0.00 0.00 90 1023.0